Starlink 31195

operational
NORAD ID: 58796 Int'l Des: 2024-012 Owner: SPXS Country: US Constellation: starlink
LEOCIRCULAR

Über Starlink 31195

Beschreibung wird geladen...

Live-Position

3D-Globus wird geladen...

Nächste Überflüge

Höhenverlauf

Altitude vs Time

uPlot chart will show altitude changes over time

Zweizeiliger Elementsatz

1 58796U 24012K 25304.37263978 .00001190 00000-0 52804-4 0 9997
2 58796 42.9977 175.9868 0001683 262.2700 97.7960 15.27555155101456
Epoch: 31. Okt. 2025 • Age: 18 hours

Aktueller Status

Höhe 483.0 km
Geschwindigkeit 7.63 km/s
Subsatellitenpunkt -1.77°S, 92.04°W
Startdatum 15. Jan. 2024
Alter 1.7 years
Typ internet

Technische Details

Klassifizierung Payload
Masse 730.00 kg
Trockenmasse 700.00 kg
Gesamtmasse 730.00 kg
Länge 0.30 m
Durchmesser 4.10 m
Spannweite 29.00 m
Form Box + pan
Hersteller SPXS
Bus-Typ Starlink V2M
Phasenstatus In Orbit
Besitzer/Staat SPXS/US

Große Konstellationen

Loading constellations...